Starlink 1734

decayed
NORAD ID: 46325 Int'l Des: 2020-062 Owner: SPXS Country: US Constellation: starlink
LEOCIRCULAR
グループ

Starlink 1734について

説明を読み込み中...

高度履歴

Altitude vs Time

uPlot chart will show altitude changes over time

軌道要素

1 46325U 20062A 25358.80578388 .09509045 12327-4 68890-3 0 9995
2 46325 53.0034 222.4640 0006073 248.9352 111.1044 16.39997360295456
Epoch: Dec 24, 2025 • Age: 990 hours

現在のステータス

Position data unavailable
打ち上げ日 Sep 3, 2020
運用期間 5.4 years
落下予定日 Dec 25, 2025
タイプ internet

技術仕様

分類 Payload
質量 260.00 kg
乾燥質量 248.00 kg
総質量 260.00 kg
長さ 0.20 m
直径 2.80 m
スパン 9.00 m
形状 Box + pan
製造者 SPXS
バスタイプ Starlink
フェーズステータス Unknown Transfer Status
所有者/国 SPXS/US

大規模コンステレーション

Loading constellations...